Regional Weather Roundup
Issued by NWS Memphis, TN

Home | Current Version | Previous Version | Text Only | Print | Product List | Glossary On
Versions: 1 2 3 4 5 6 7 8 9 10 11 12 13 14 15 16 17 18 19 20 21 22 23 24 25 26 27 28 29 30 31 32 33 34 35 36 37 38 39 40 41 42 43 44 45 46 47 48 49 50
000
ASUS44 KMEG 251710
RWRMEG
MEMPHIS CWA HOURLY WEATHER ROUNDUP
NATIONAL WEATHER SERVICE MEMPHIS TN
1200 PM CDT SUN JUN 25 2017

...WEST TENNESSEE...

CITY           SKY/WX    TMP DP  RH WIND       PRES   REMARKS
MEMPHIS INTL   MOSUNNY   84  55  36 MISG      30.25F
NWS MEMPHIS      N/A     81 N/A N/A MISG        N/A
JACKSON        SUNNY     82  52  35 CALM      30.25F
COVINGTON      SUNNY     81  54  39 NE6G12    30.26S
SOMERVILLE     SUNNY     81  55  41 NW9       30.25S
BOLIVAR        SUNNY     81  55  41 VRB6      30.24F
LEXINGTON      SUNNY     79  55  44 N9        30.24F
SELMER         SUNNY     79  54  41 N9        30.25S
SAVANNAH       SUNNY     79  55  44 N12G17    30.24S
UNION CITY     SUNNY     81  52  36 N8        30.24S
PARIS          SUNNY     79  52  38 VRB5      30.24S
HUNTINGDON     SUNNY     79  54  41 VRB5      30.24S


...EASTERN ARKANSAS...

CITY           SKY/WX    TMP DP  RH WIND       PRES   REMARKS
JONESBORO      SUNNY     84  52  33 NE7       30.26R
WEST MEMPHIS   SUNNY     80  58  46 VRB5      30.24F
BATESVILLE     SUNNY     81  54  39 CALM      30.28R
WALNUT RIDGE   SUNNY     79  54  41 W6        30.26F
BLYTHEVILLE    SUNNY     82  56  40 N7        30.26S
SEARCY         SUNNY     81  57  43 VRB3      30.28S
STUTTGART      SUNNY    N/A N/A N/A CALM      30.26F
PINE BLUFF     SUNNY     81  59  47 E6        30.26S
MONTICELLO     SUNNY     82  58  43 E9        30.25S


...NORTH MISSISSIPPI...

CITY           SKY/WX    TMP DP  RH WIND       PRES   REMARKS
TUPELO         CLOUDY    78  55  44 NE5       30.24F
OXFORD         CLOUDY    77  55  47 NE5       30.27F
BATESVILLE     SUNNY     80  56  43 CALM      30.26F
OLIVE BRANCH   MOSUNNY  N/A N/A N/A E6        30.25S
TUNICA           N/A     77  59  53 CALM      30.26F
CLARKSDALE       N/A     81  59  47 CALM      30.26S
CORINTH        CLOUDY    79  55  44 NE8       30.25S
GREENWOOD      CLOUDY    78  59  51 NE9       30.25S
COLUMBUS       CLOUDY    71  65  79 NE5       30.24S
STARKVILLE     PTSUNNY   72  61  68 CALM      30.27R
GOLDEN TRIANGL MOSUNNY   73  61  64 N5        30.21R


...SOUTHEAST MISSOURI...

CITY           SKY/WX    TMP DP  RH WIND       PRES   REMARKS
KENNETT        SUNNY     81  50  34 VRB3      30.24F
MALDEN         SUNNY     81  54  39 NW7       30.26F
WEST PLAINS    SUNNY     80  47  31 VRB5      30.28F
POPLAR BLUFF   SUNNY     82  53  36 VRB3      30.24F
CAPE GIRARDEAU SUNNY     81  53  37 W13       30.22F


...NORTHWEST ALABAMA...

CITY           SKY/WX    TMP DP  RH WIND       PRES   REMARKS
MUSCLE SHOALS  MOSUNNY   80  51  36 N8        30.24F


...MIDDLE TENNESSEE...

CITY           SKY/WX    TMP DP  RH WIND       PRES   REMARKS
NASHVILLE      MOSUNNY   80  50  34 NW8       30.24F
CLARKSVILLE    SUNNY     79  49  34 N8        30.23F
COLUMBIA       SUNNY     77  52  41 N8        30.22S


...WESTERN KENTUCKY...

CITY           SKY/WX    TMP DP  RH WIND       PRES   REMARKS
PADUCAH        SUNNY     80  51  36 W10       30.23F
FORT CAMPBELL  SUNNY     78  50  37 W6        30.23F


...CENTRAL ARKANSAS...

CITY           SKY/WX    TMP DP  RH WIND       PRES   REMARKS
LITTLE ROCK    MOSUNNY   81  60  48 VRB5      30.27S


SKY/WX REPORTED AS FAIR MEANS FEW OR NO CLOUDS BELOW
12 THOUSAND FEET.




USA.gov is the U.S. government's official web portal to all federal, state and local government web resources and services.